Weather History for Pipestone, MN

Change the Weather History Date:

Friday, May 24, 2013

  Actual Average Record
Temperature  
Mean Temperature 54 °F -  
Max Temperature 66 °F 66 °F 80 °F (2014)
Min Temperature 42 °F 47 °F 33 °F (2002)
Degree Days  
Heating Degree Days 11    
Growing Degree Days 4 (Base 50)    
Moisture  
Dew Point 43 °F    
Average Humidity 66    
Maximum Humidity 88    
Minimum Humidity 37    
Precipitation  
Precipitation 0.17 in - - ()
Sea Level Pressure  
Sea Level Pressure 30.20 in    
Wind  
Wind Speed 10 mph (SSE)    
Max Wind Speed 24 mph    
Max Gust Speed 28 mph    
Visibility 10 miles    
Events Rain , Thunderstorm    
Averages and records for this station are not official NWS values.
T = Trace of Precipitation, MM = Missing Value Source: NWS Daily Summary

Daily Weather History Graph

Daily Weather History Graph

Search for Another Location

Airport:

Trip Planner

Search our weather history database for the weather conditions in past years. The results will help you decide how hot, cold, wet, or windy it might be!

Date:

Astronomy

May. 24, 2013 Rise Set
Actual Time 5:50 AM CDT 8:54 PM CDT
Civil Twilight 5:15 AM CDT 9:28 PM CDT
Nautical Twilight 4:31 AM CDT 10:13 PM CDT
Astronomical Twilight 3:39 AM CDT 11:06 PM CDT
Moon 8:36 PM CDT (5/24) 5:25 AM CDT (5/24)
Length of Visible Light 16h 12m
Length of Day
15h 03m
Full, 100% of the Moon is Illuminated
May 24
Full
May 24
Full
May 31
Last Quarter
Jun 8
New
Jun 16
First Quarter

Hourly Weather History & Observations

Time (CDT) Temp. Windchill Dew Point Humidity Pressure Visibility Wind Dir Wind Speed Gust Speed Precip Events Conditions
12:13 AM 48.2 °F - 35.6 °F 62% 30.29 in 10.0 mi ESE 4.6 mph - N/A   Clear
12:33 AM 46.4 °F 42.9 °F 35.6 °F 66% 30.29 in 10.0 mi ESE 6.9 mph - N/A   Clear
12:54 AM 46.4 °F 43.5 °F 35.6 °F 66% 30.30 in 10.0 mi SE 5.8 mph - N/A   Clear
1:13 AM 46.4 °F 42.9 °F 35.6 °F 66% 30.29 in 10.0 mi ESE 6.9 mph - N/A   Clear
1:33 AM 44.6 °F 42.2 °F 35.6 °F 71% 30.30 in 10.0 mi SE 4.6 mph - N/A   Clear
1:53 AM 44.6 °F 41.4 °F 35.6 °F 71% 30.29 in 10.0 mi SE 5.8 mph - N/A   Clear
2:13 AM 44.6 °F 40.7 °F 35.6 °F 71% 30.29 in 10.0 mi SE 6.9 mph - N/A   Clear
2:33 AM 44.6 °F 40.7 °F 35.6 °F 71% 30.29 in 10.0 mi SE 6.9 mph - N/A   Clear
2:53 AM 44.6 °F 41.4 °F 35.6 °F 71% 30.29 in 10.0 mi SE 5.8 mph - N/A   Clear
3:13 AM 44.6 °F 41.4 °F 35.6 °F 71% 30.28 in 10.0 mi SE 5.8 mph - N/A   Clear
3:33 AM 42.8 °F 38.6 °F 35.6 °F 76% 30.28 in 10.0 mi SE 6.9 mph - N/A   Clear
3:53 AM 42.8 °F 38.6 °F 35.6 °F 76% 30.28 in 10.0 mi SE 6.9 mph - N/A   Clear
4:13 AM 42.8 °F 38.6 °F 35.6 °F 76% 30.28 in 10.0 mi SE 6.9 mph - N/A   Clear
4:33 AM 42.8 °F 38.6 °F 35.6 °F 76% 30.27 in 10.0 mi SE 6.9 mph - N/A   Clear
4:53 AM 42.8 °F 38.6 °F 35.6 °F 76% 30.27 in 10.0 mi SE 6.9 mph - N/A   Clear
5:13 AM 42.8 °F 37.5 °F 35.6 °F 76% 30.26 in 10.0 mi SE 9.2 mph - N/A   Clear
5:33 AM 42.8 °F 38.0 °F 35.6 °F 76% 30.26 in 10.0 mi SE 8.1 mph - N/A   Clear
5:53 AM 42.8 °F 38.6 °F 35.6 °F 76% 30.27 in 10.0 mi SE 6.9 mph - N/A   Clear
6:13 AM 42.8 °F 38.0 °F 35.6 °F 76% 30.27 in 10.0 mi SE 8.1 mph - N/A   Clear
6:33 AM 44.6 °F 39.7 °F 35.6 °F 71% 30.27 in 10.0 mi SE 9.2 mph - N/A   Clear
6:53 AM 44.6 °F 40.7 °F 37.4 °F 76% 30.28 in 10.0 mi SE 6.9 mph - N/A   Clear
7:13 AM 46.4 °F 42.4 °F 37.4 °F 71% 30.28 in 10.0 mi SSE 8.1 mph - N/A   Clear
7:33 AM 48.2 °F - 37.4 °F 66% 30.28 in 10.0 mi SSE 10.4 mph - N/A   Clear
7:53 AM 50.0 °F - 37.4 °F 62% 30.27 in 10.0 mi SSE 15.0 mph 19.6 mph N/A   Clear
8:13 AM 51.8 °F - 37.4 °F 58% 30.27 in 10.0 mi SSE 17.3 mph 24.2 mph N/A   Clear
8:33 AM 53.6 °F - 37.4 °F 54% 30.27 in 10.0 mi SSE 16.1 mph - N/A   Clear
8:53 AM 55.4 °F - 37.4 °F 51% 30.27 in 10.0 mi South 18.4 mph 24.2 mph N/A   Clear
9:13 AM 57.2 °F - 37.4 °F 48% 30.27 in 10.0 mi SSE 19.6 mph 25.3 mph N/A   Clear
9:33 AM 57.2 °F - 39.2 °F 51% 30.26 in 10.0 mi South 21.9 mph 26.5 mph N/A   Clear
9:53 AM 59.0 °F - 39.2 °F 48% 30.26 in 10.0 mi South 19.6 mph 25.3 mph N/A   Clear
10:13 AM 59.0 °F - 39.2 °F 48% 30.26 in 10.0 mi South 19.6 mph 24.2 mph N/A   Scattered Clouds
10:33 AM 59.0 °F - 41.0 °F 51% 30.25 in 10.0 mi South 18.4 mph 24.2 mph N/A   Scattered Clouds
10:53 AM 60.8 °F - 42.8 °F 52% 30.25 in 10.0 mi South 19.6 mph - N/A   Scattered Clouds
11:13 AM 60.8 °F - 42.8 °F 52% 30.24 in 10.0 mi South 20.7 mph - N/A   Scattered Clouds
11:34 AM 62.6 °F - 42.8 °F 48% 30.23 in 10.0 mi South 18.4 mph 26.5 mph N/A   Scattered Clouds
11:53 AM 62.6 °F - 41.0 °F 45% 30.22 in 10.0 mi South 19.6 mph 26.5 mph N/A   Clear
12:13 PM 64.4 °F - 41.0 °F 42% 30.21 in 10.0 mi South 17.3 mph 23.0 mph N/A   Clear
12:33 PM 66.2 °F - 42.8 °F 43% 30.20 in 10.0 mi SSE 17.3 mph 26.5 mph N/A   Clear
12:53 PM 66.2 °F - 39.2 °F 37% 30.20 in 10.0 mi South 20.7 mph 26.5 mph N/A   Mostly Cloudy
1:13 PM 66.2 °F - 39.2 °F 37% 30.18 in 10.0 mi South 17.3 mph 24.2 mph N/A   Mostly Cloudy
1:33 PM 66.2 °F - 41.0 °F 40% 30.19 in 10.0 mi South 19.6 mph 27.6 mph N/A   Mostly Cloudy
1:53 PM 66.2 °F - 39.2 °F 37% 30.17 in 10.0 mi South 24.2 mph 27.6 mph N/A   Mostly Cloudy
2:13 PM 60.8 °F - 46.4 °F 59% 30.18 in 10.0 mi South 13.8 mph - 0.01 in Rain Light Rain
2:33 PM 66.2 °F - 48.2 °F 52% 30.16 in 10.0 mi South 17.3 mph - N/A   Scattered Clouds
2:53 PM 66.2 °F - 44.6 °F 46% 30.13 in 10.0 mi South 17.3 mph 25.3 mph N/A   Scattered Clouds
3:13 PM 64.4 °F - 42.8 °F 45% 30.15 in 10.0 mi SSW 13.8 mph 21.9 mph N/A Thunderstorm Mostly Cloudy
3:33 PM 62.6 °F - 46.4 °F 55% 30.22 in 5.0 mi WSW 10.4 mph - 0.06 in Rain , Thunderstorm Heavy Thunderstorms and Rain
3:53 PM 57.2 °F - 48.2 °F 72% 30.14 in 10.0 mi SE 11.5 mph - 0.12 in Rain , Thunderstorm Heavy Thunderstorms and Rain
4:13 PM 57.2 °F - 50.0 °F 77% 30.12 in 10.0 mi SSE 11.5 mph - N/A Thunderstorm Thunderstorm
4:33 PM 60.8 °F - 48.2 °F 63% 30.14 in 10.0 mi SSE 5.8 mph - N/A Rain , Thunderstorm Light Thunderstorms and Rain
4:53 PM 60.8 °F - 50.0 °F 68% 30.15 in 10.0 mi East 3.5 mph - 0.01 in Rain , Thunderstorm Thunderstorms and Rain
5:13 PM 59.0 °F - 51.8 °F 77% 30.13 in 10.0 mi ESE 8.1 mph - 0.02 in Rain , Thunderstorm Light Thunderstorms and Rain
5:33 PM 57.2 °F - 51.8 °F 82% 30.12 in 10.0 mi ESE 9.2 mph - 0.01 in Rain , Thunderstorm Light Thunderstorms and Rain
5:53 PM 59.0 °F - 48.2 °F 67% 30.11 in 10.0 mi ESE 10.4 mph - N/A Thunderstorm Overcast
6:13 PM 59.0 °F - 51.8 °F 77% 30.11 in 10.0 mi SE 11.5 mph 17.3 mph N/A   Overcast
6:33 PM 57.2 °F - 51.8 °F 82% 30.11 in 10.0 mi SE 8.1 mph - N/A Thunderstorm Overcast
6:53 PM 57.2 °F - 51.8 °F 82% 30.10 in 10.0 mi ESE 10.4 mph - N/A Thunderstorm Thunderstorm
7:13 PM 57.2 °F - 51.8 °F 82% 30.10 in 10.0 mi ESE 10.4 mph - N/A   Overcast
7:33 PM 57.2 °F - 51.8 °F 82% 30.10 in 10.0 mi SE 8.1 mph - N/A   Overcast
7:53 PM 57.2 °F - 51.8 °F 82% 30.10 in 10.0 mi SE 9.2 mph - N/A Rain , Thunderstorm Light Thunderstorms and Rain
8:13 PM 57.2 °F - 51.8 °F 82% 30.10 in 10.0 mi SE 6.9 mph - N/A Rain Light Rain
8:33 PM 57.2 °F - 53.6 °F 88% 30.10 in 10.0 mi SE 10.4 mph - N/A   Overcast
8:53 PM 59.0 °F - 51.8 °F 77% 30.08 in 10.0 mi SE 12.7 mph - N/A   Overcast
9:13 PM 60.8 °F - 51.8 °F 72% 30.08 in 10.0 mi SSE 17.3 mph - N/A   Overcast
9:33 PM 60.8 °F - 51.8 °F 72% 30.08 in 10.0 mi SSE 16.1 mph 21.9 mph 0.01 in   Overcast
9:53 PM 60.8 °F - 51.8 °F 72% 30.08 in 10.0 mi SSE 17.3 mph 23.0 mph N/A   Overcast
10:13 PM 60.8 °F - 51.8 °F 72% 30.09 in 10.0 mi SSE 16.1 mph 23.0 mph N/A   Overcast
10:33 PM 60.8 °F - 51.8 °F 72% 30.10 in 10.0 mi SSE 16.1 mph 24.2 mph N/A   Overcast
10:53 PM 59.0 °F - 51.8 °F 77% 30.11 in 10.0 mi SSE 16.1 mph 21.9 mph N/A   Overcast
11:13 PM 59.0 °F - 51.8 °F 77% 30.10 in 10.0 mi SSE 16.1 mph 21.9 mph N/A   Overcast
11:33 PM 59.0 °F - 51.8 °F 77% 30.11 in 10.0 mi SSE 16.1 mph 24.2 mph N/A   Overcast
11:53 PM 59.0 °F - 51.8 °F 77% 30.11 in 10.0 mi SSE 17.3 mph - N/A   Overcast